Location: Kellogg
(38.0159°N, 90.0546°W)
Time: 00:55:48
(UTC+00:00)

BlueWalker 3 - Visible Passes

Search period start: 25 January 2026 00:00
Search period end: 04 February 2026 00:00
Orbit: 451 x 462 km, 53.2° (Epoch: 24 January)

Date Brightness Start Highest point End Pass type
(mag) Time Alt. Az. Time Alt. Az. Time Alt. Az.
25 Jan 4.3 01:04:55 10° NW 01:06:24 12° NNW 01:06:57 12° N visible
26 Jan 4.2 00:28:48 10° WNW 00:30:46 14° NNW 00:32:43 10° N visible
26 Jan 4.1 23:52:46 10° WNW 23:55:07 16° NNW 23:57:28 10° NNE visible
3 Feb 4.2 00:40:36 10° N 00:41:15 10° NNE 00:41:15 10° NNE visible
